| time (UTC) | temp F | wind direction | speed knots | gust knots | rain 1hr in | rain 24hr in | rain mn in | humidity % | barometer mb |
| 20260906224129 | 103 | 109 | 0.9 | 2.6 | 0.00 | 0.00 | 0.00 | 37 | 1010.1 |
| 20260906223130 | 103 | 179 | 0.0 | 2.6 | 0.00 | 0.00 | 0.00 | 37 | 1010.1 |
| 20260906222128 | 102 | 293 | 0.0 | 5.2 | 0.00 | 0.00 | 0.00 | 36 | 1010.1 |
| 20260906221129 | 101 | 193 | 0.9 | 3.5 | 0.00 | 0.00 | 0.00 | 39 | 1010.2 |
| 20260906220128 | 101 | 204 | 1.7 | 3.5 | 0.00 | 0.00 | 0.00 | 37 | 1010.3 |
| 20260906215129 | 103 | 107 | 1.7 | 4.3 | 0.00 | 0.00 | 0.00 | 37 | 1010.2 |
| 20260906214129 | 103 | 166 | 0.9 | 1.7 | 0.00 | 0.00 | 0.00 | 36 | 1010.3 |
| 20260906213603 | 103 | 56 | 0.0 | 3.5 | 0.00 | 0.00 | 0.00 | 38 | 1010.6 |
| 20260906212129 | 103 | 44 | 0.9 | 4.3 | 0.00 | 0.00 | 0.00 | 40 | 1010.8 |
| 20260906211129 | 103 | 52 | 0.0 | 4.3 | 0.00 | 0.00 | 0.00 | 41 | 1010.8 |
| 20260906210128 | 103 | 147 | 0.9 | 3.5 | 0.00 | 0.00 | 0.00 | 39 | 1010.9 |
| 20260906205128 | 102 | 152 | 0.9 | 2.6 | 0.00 | 0.00 | 0.00 | 39 | 1011.2 |
| 20260906204606 | 101 | 142 | 1.7 | 3.5 | 0.00 | 0.00 | 0.00 | 39 | 1011.3 |
| 20260906203608 | 102 | 87 | 0.9 | 2.6 | 0.00 | 0.00 | 0.00 | 40 | 1011.4 |
| 20260906202125 | 101 | 120 | 1.7 | 3.5 | 0.00 | 0.00 | 0.00 | 41 | 1011.5 |
| 20260906201126 | 100 | 51 | 1.7 | 5.2 | 0.00 | 0.00 | 0.00 | 42 | 1011.5 |
| 20260906200124 | 100 | 55 | 1.7 | 4.3 | 0.00 | 0.00 | 0.00 | 45 | 1011.7 |
| 20260906195122 | 102 | 59 | 1.7 | 3.5 | 0.00 | 0.00 | 0.00 | 39 | 1011.7 |
| 20260906194122 | 102 | 102 | 0.9 | 4.3 | 0.00 | 0.00 | 0.00 | 41 | 1011.8 |
| 20260906193120 | 101 | 214 | 0.9 | 3.5 | 0.00 | 0.00 | 0.00 | 41 | 1011.9 |
| 20260906192118 | 101 | 100 | 1.7 | 3.5 | 0.00 | 0.00 | 0.00 | 42 | 1012.0 |
| 20260906191116 | 101 | 72 | 0.9 | 4.3 | 0.00 | 0.00 | 0.00 | 40 | 1012.2 |
| 20260906190115 | 101 | 173 | 0.9 | 3.5 | 0.00 | 0.00 | 0.00 | 44 | 1012.2 |
| 20260906185114 | 101 | 45 | 0.9 | 5.2 | 0.00 | 0.00 | 0.00 | 42 | 1012.3 |
| 20260906184114 | 101 | 107 | 0.9 | 3.5 | 0.00 | 0.00 | 0.00 | 42 | 1012.5 |
| 20260906183112 | 100 | 178 | 1.7 | 3.5 | 0.00 | 0.00 | 0.00 | 43 | 1012.6 |
| 20260906182110 | 100 | 52 | 0.9 | 4.3 | 0.00 | 0.00 | 0.00 | 43 | 1012.6 |
| 20260906181110 | 99 | 135 | 0.0 | 5.2 | 0.00 | 0.00 | 0.00 | 46 | 1012.9 |
| 20260906180108 | 98 | 102 | 0.9 | 3.5 | 0.00 | 0.00 | 0.00 | 47 | 1012.9 |
| 20260906175106 | 96 | 114 | 0.9 | 3.5 | 0.00 | 0.00 | 0.00 | 49 | 1013.0 |
| 20260906174549 | 96 | 44 | 0.9 | 4.3 | 0.00 | 0.00 | 0.00 | 48 | 1013.2 |
| 20260906173102 | 97 | 4 | 1.7 | 3.5 | 0.00 | 0.00 | 0.00 | 49 | 1013.6 |
| 20260906172554 | 96 | 157 | 1.7 | 3.5 | 0.00 | 0.00 | 0.00 | 51 | 1013.6 |
| 20260906171102 | 96 | 93 | 0.9 | 4.3 | 0.00 | 0.00 | 0.00 | 51 | 1013.7 |
| 20260906170544 | 95 | 106 | 0.0 | 3.5 | 0.00 | 0.00 | 0.00 | 53 | 1013.7 |
| 20260906165101 | 94 | 155 | 0.9 | 1.7 | 0.00 | 0.00 | 0.00 | 52 | 1013.8 |
| 20260906164603 | 94 | 0 | 0.9 | 1.7 | 0.00 | 0.00 | 0.00 | 55 | 1014.0 |
| 20260906163101 | 93 | 244 | 0.0 | 2.6 | 0.00 | 0.00 | 0.00 | 57 | 1014.0 |
| 20260906162101 | 93 | 336 | 0.0 | 4.3 | 0.00 | 0.00 | 0.00 | 58 | 1013.9 |
| 20260906161100 | 92 | 97 | 0.0 | 3.5 | 0.00 | 0.00 | 0.00 | 58 | 1013.9 |
| 20260906160100 | 91 | 292 | 1.7 | 3.5 | 0.00 | 0.00 | 0.00 | 59 | 1013.9 |
| 20260906155057 | 91 | 37 | 0.9 | 2.6 | 0.00 | 0.00 | 0.00 | 61 | 1013.9 |
| 20260906154056 | 91 | 68 | 0.0 | 3.5 | 0.00 | 0.00 | 0.00 | 59 | 1013.9 |
| 20260906153056 | 91 | 254 | 0.0 | 2.6 | 0.00 | 0.00 | 0.00 | 62 | 1013.7 |
| 20260906152541 | 90 | 86 | 0.0 | 2.6 | 0.00 | 0.00 | 0.00 | 63 | 1013.5 |
| 20260906151052 | 90 | 271 | 0.9 | 2.6 | 0.00 | 0.00 | 0.00 | 62 | 1013.5 |
| 20260906150052 | 90 | 97 | 0.0 | 0.0 | 0.00 | 0.00 | 0.00 | 63 | 1013.4 |
| 20260906145050 | 89 | 87 | 0.0 | 1.7 | 0.00 | 0.00 | 0.00 | 65 | 1013.5 |
| 20260906144048 | 88 | 72 | 0.0 | 0.9 | 0.00 | 0.00 | 0.00 | 67 | 1013.4 |
| 20260906144022 | 86 | 171 | 0.0 | 0.9 | 0.00 | 0.00 | 0.00 | 68 | 1013.3 |
| 20260906142045 | 85 | 324 | 0.0 | 1.7 | 0.00 | 0.00 | 0.00 | 70 | 1013.3 |
| 20260906141532 | 84 | 125 | 0.0 | 0.0 | 0.00 | 0.00 | 0.00 | 72 | 1013.5 |
| 20260906140044 | 83 | 179 | 0.0 | 0.0 | 0.00 | 0.00 | 0.00 | 76 | 1013.5 |
| 20260906135042 | 82 | 179 | 0.0 | 0.0 | 0.00 | 0.00 | 0.00 | 76 | 1013.5 |
| 20260906134040 | 81 | 210 | 0.0 | 0.0 | 0.00 | 0.00 | 0.00 | 78 | 1013.6 |
| 20260906133041 | 81 | 210 | 0.0 | 0.0 | 0.00 | 0.00 | 0.00 | 78 | 1013.5 |
| 20260906132038 | 80 | 102 | 0.0 | 0.0 | 0.00 | 0.00 | 0.00 | 80 | 1013.4 |
| 20260906131513 | 79 | 102 | 0.0 | 0.0 | 0.00 | 0.00 | 0.00 | 82 | 1013.6 |
| 20260906130037 | 78 | 259 | 0.0 | 0.0 | 0.00 | 0.00 | 0.00 | 83 | 1013.3 |
| 20260906125036 | 78 | 259 | 0.0 | 0.0 | 0.00 | 0.00 | 0.00 | 84 | 1013.2 |
| 20260906124036 | 77 | 259 | 0.0 | 0.0 | 0.00 | 0.00 | 0.00 | 85 | 1013.2 |
| 20260906123040 | 77 | 259 | 0.0 | 0.0 | 0.00 | 0.00 | 0.00 | 84 | 1013.1 |
| 20260906122033 | 77 | 259 | 0.0 | 0.0 | 0.00 | 0.00 | 0.00 | 84 | 1013.1 |
| 20260906121030 | 77 | 259 | 0.0 | 0.0 | 0.00 | 0.00 | 0.00 | 84 | 1012.9 |
| 20260906120038 | 77 | 259 | 0.0 | 0.0 | 0.00 | 0.00 | 0.00 | 84 | 1012.8 |
| 20260906115031 | 77 | 259 | 0.0 | 0.0 | 0.00 | 0.00 | 0.00 | 83 | 1012.8 |
| 20260906114510 | 77 | 259 | 0.0 | 0.0 | 0.00 | 0.00 | 0.00 | 83 | 1012.8 |
| 20260906113035 | 77 | 259 | 0.0 | 0.0 | 0.00 | 0.00 | 0.00 | 83 | 1012.7 |
| 20260906112030 | 77 | 259 | 0.0 | 0.0 | 0.00 | 0.00 | 0.00 | 83 | 1012.6 |
| 20260906111029 | 77 | 259 | 0.0 | 0.0 | 0.00 | 0.00 | 0.00 | 82 | 1012.5 |
| 20260906110033 | 77 | 259 | 0.0 | 0.0 | 0.00 | 0.00 | 0.00 | 81 | 1012.5 |
| 20260906105029 | 78 | 259 | 0.0 | 0.0 | 0.00 | 0.00 | 0.00 | 81 | 1012.3 |
| 20260906104030 | 78 | 259 | 0.0 | 0.0 | 0.00 | 0.00 | 0.00 | 81 | 1012.2 |
| 20260906103036 | 78 | 259 | 0.0 | 0.0 | 0.00 | 0.00 | 0.00 | 81 | 1012.2 |
| 20260906102512 | 78 | 259 | 0.0 | 0.0 | 0.00 | 0.00 | 0.00 | 80 | 1012.3 |
| 20260906101031 | 79 | 259 | 0.0 | 0.0 | 0.00 | 0.00 | 0.00 | 79 | 1012.2 |
| 20260906100035 | 79 | 259 | 0.0 | 0.0 | 0.00 | 0.00 | 0.00 | 80 | 1012.1 |
| 20260906095032 | 79 | 259 | 0.0 | 0.0 | 0.00 | 0.00 | 0.00 | 79 | 1011.9 |
| 20260906094031 | 79 | 259 | 0.0 | 0.0 | 0.00 | 0.00 | 0.00 | 77 | 1011.8 |
| 20260906093032 | 80 | 259 | 0.0 | 0.0 | 0.00 | 0.00 | 0.00 | 77 | 1011.8 |
| 20260906092031 | 80 | 259 | 0.0 | 0.0 | 0.00 | 0.00 | 0.00 | 76 | 1011.9 |
| 20260906091509 | 80 | 259 | 0.0 | 0.9 | 0.00 | 0.00 | 0.00 | 76 | 1011.6 |
| 20260906090514 | 80 | 213 | 0.0 | 0.9 | 0.00 | 0.00 | 0.00 | 76 | 1011.6 |
| 20260906085032 | 80 | 237 | 0.0 | 0.9 | 0.00 | 0.00 | 0.00 | 77 | 1011.6 |
| 20260906084034 | 80 | 219 | 0.0 | 0.0 | 0.00 | 0.00 | 0.00 | 77 | 1011.6 |
| 20260906083507 | 80 | 219 | 0.0 | 0.0 | 0.00 | 0.00 | 0.00 | 77 | 1011.6 |
| 20260906082032 | 80 | 141 | 0.0 | 0.0 | 0.00 | 0.00 | 0.00 | 77 | 1011.5 |
| 20260906081042 | 80 | 226 | 0.0 | 0.0 | 0.00 | 0.00 | 0.00 | 77 | 1011.5 |
| 20260906080037 | 80 | 226 | 0.0 | 0.0 | 0.00 | 0.00 | 0.00 | 77 | 1011.5 |
| 20260906075032 | 80 | 113 | 0.0 | 0.0 | 0.00 | 0.00 | 0.00 | 77 | 1011.6 |
| 20260906074516 | 80 | 102 | 0.0 | 0.0 | 0.00 | 0.00 | 0.00 | 77 | 1011.6 |
| 20260906073508 | 80 | 102 | 0.0 | 0.0 | 0.00 | 0.00 | 0.00 | 76 | 1011.8 |
| 20260906072509 | 81 | 102 | 0.0 | 0.0 | 0.00 | 0.00 | 0.00 | 76 | 1011.9 |
| 20260906071034 | 81 | 102 | 0.0 | 0.0 | 0.00 | 0.00 | 0.00 | 75 | 1012.0 |
| 20260906070036 | 82 | 102 | 0.0 | 0.0 | 0.00 | 0.00 | 0.00 | 74 | 1012.0 |
| 20260906065031 | 81 | 102 | 0.0 | 0.0 | 0.00 | 0.00 | 0.00 | 74 | 1011.9 |
| 20260906064502 | 82 | 102 | 0.0 | 0.0 | 0.00 | 0.00 | 0.00 | 74 | 1012.0 |
| 20260906063032 | 82 | 102 | 0.0 | 0.0 | 0.00 | 0.00 | 0.00 | 74 | 1011.9 |
| 20260906062032 | 82 | 102 | 0.0 | 0.0 | 0.00 | 0.00 | 0.00 | 73 | 1012.0 |
| 20260906061031 | 82 | 102 | 0.0 | 0.0 | 0.00 | 0.00 | 0.00 | 72 | 1011.9 |
| 20260906060033 | 83 | 102 | 0.0 | 0.0 | 0.00 | 0.00 | 0.00 | 71 | 1012.0 |
| 20260906055504 | 83 | 102 | 0.0 | 0.0 | 0.00 | 0.00 | 0.00 | 70 | 1012.0 |
| 20260906054033 | 83 | 102 | 0.0 | 0.0 | 0.00 | 0.00 | 0.00 | 69 | 1011.9 |
| 20260906053032 | 84 | 102 | 0.0 | 0.0 | 0.00 | 0.00 | 0.00 | 68 | 1012.0 |
| 20260906052031 | 84 | 102 | 0.0 | 0.9 | 0.00 | 0.00 | 0.00 | 68 | 1012.0 |
| 20260906051031 | 84 | 183 | 0.0 | 0.9 | 0.00 | 0.00 | 0.00 | 67 | 1012.1 |
| 20260906050522 | 84 | 199 | 0.0 | 2.6 | 0.00 | 0.00 | 0.00 | 67 | 1012.1 |
| 20260906045034 | 84 | 274 | 0.0 | 0.9 | 0.00 | 0.00 | 0.00 | 66 | 1012.0 |
| 20260906044032 | 85 | 165 | 0.0 | 0.0 | 0.00 | 0.00 | 0.00 | 66 | 1012.0 |
| 20260906043032 | 85 | 240 | 0.0 | 0.9 | 0.00 | 0.00 | 0.00 | 65 | 1012.0 |
| 20260906042511 | 85 | 158 | 0.0 | 0.0 | 0.00 | 0.00 | 0.00 | 64 | 1011.8 |
| 20260906041040 | 86 | 158 | 0.0 | 0.9 | 0.00 | 0.00 | 0.00 | 63 | 1011.9 |
| 20260906040030 | 86 | 196 | 0.0 | 0.9 | 0.00 | 0.00 | 0.00 | 62 | 1011.8 |
| 20260906035031 | 87 | 131 | 0.0 | 0.9 | 0.00 | 0.00 | 0.00 | 61 | 1011.9 |
| 20260906034518 | 87 | 210 | 0.0 | 1.7 | 0.00 | 0.00 | 0.00 | 60 | 1012.0 |
| 20260906033036 | 87 | 83 | 0.0 | 0.9 | 0.00 | 0.00 | 0.00 | 60 | 1011.9 |
| 20260906032033 | 87 | 237 | 0.0 | 0.9 | 0.00 | 0.00 | 0.00 | 60 | 1011.9 |
| 20260906031042 | 87 | 185 | 0.0 | 2.6 | 0.00 | 0.00 | 0.00 | 60 | 1011.9 |
| 20260906030035 | 87 | 178 | 0.0 | 1.7 | 0.00 | 0.00 | 0.00 | 59 | 1012.0 |
| 20260906025030 | 88 | 216 | 0.0 | 2.6 | 0.00 | 0.00 | 0.00 | 59 | 1011.8 |
| 20260906024035 | 88 | 124 | 0.0 | 1.7 | 0.00 | 0.00 | 0.00 | 58 | 1011.8 |
| 20260906023036 | 88 | 133 | 0.0 | 1.7 | 0.00 | 0.00 | 0.00 | 58 | 1011.6 |
| 20260906022031 | 89 | 141 | 0.0 | 2.6 | 0.00 | 0.00 | 0.00 | 58 | 1011.3 |
| 20260906021035 | 89 | 133 | 0.0 | 2.6 | 0.00 | 0.00 | 0.00 | 57 | 1011.2 |
| 20260906020043 | 90 | 134 | 0.9 | 4.3 | 0.00 | 0.00 | 0.00 | 56 | 1011.2 |
| 20260906015043 | 91 | 128 | 0.9 | 2.6 | 0.00 | 0.00 | 0.00 | 55 | 1011.1 |
| 20260906014030 | 91 | 111 | 0.9 | 3.5 | 0.00 | 0.00 | 0.00 | 53 | 1011.0 |
| 20260906013030 | 92 | 183 | 0.0 | 4.3 | 0.00 | 0.00 | 0.00 | 51 | 1010.7 |
| 20260906012040 | 92 | 182 | 0.0 | 0.0 | 0.00 | 0.00 | 0.00 | 48 | 1010.3 |
| 20260906011524 | 93 | 123 | 0.0 | 0.9 | 0.00 | 0.00 | 0.00 | 46 | 1010.1 |
| 20260906010032 | 94 | 134 | 0.0 | 0.0 | 0.00 | 0.00 | 0.00 | 45 | 1010.1 |
| 20260906005035 | 95 | 134 | 0.0 | 0.9 | 0.00 | 0.00 | 0.00 | 43 | 1010.1 |
| 20260906004031 | 96 | 134 | 0.0 | 0.9 | 0.00 | 0.00 | 0.00 | 42 | 1010.1 |
| 20260906003034 | 98 | 155 | 0.0 | 0.0 | 0.00 | 0.00 | 0.00 | 41 | 1010.1 |
| 20260906002041 | 100 | 96 | 0.0 | 0.9 | 0.00 | 0.00 | 0.00 | 39 | 1010.0 |
| 20260906001027 | 101 | 182 | 0.0 | 2.6 | 0.00 | 0.00 | 0.00 | 38 | 1010.0 |
| 20260906000031 | 101 | 109 | 0.0 | 0.9 | 0.00 | 0.00 | 0.00 | 39 | 1009.9 |
| 20260905235033 | 101 | 154 | 0.0 | 1.7 | 0.00 | 0.00 | 0.00 | 38 | 1009.9 |
| 20260905234033 | 102 | 72 | 0.0 | 2.6 | 0.00 | 0.00 | 0.00 | 36 | 1009.8 |
| 20260905233028 | 103 | 210 | 0.0 | 0.9 | 0.00 | 0.00 | 0.00 | 36 | 1009.8 |
| 20260905232038 | 102 | 104 | 0.9 | 1.7 | 0.00 | 0.00 | 0.00 | 36 | 1009.9 |
| 20260905231029 | 103 | 134 | 0.0 | 0.9 | 0.00 | 0.00 | 0.00 | 37 | 1009.8 |
| 20260905230029 | 103 | 123 | 0.9 | 2.6 | 0.00 | 0.00 | 0.00 | 35 | 1009.8 |
| 20260905225033 | 103 | 231 | 0.0 | 2.6 | 0.00 | 0.00 | 0.00 | 36 | 1009.9 |